Regional Weather Roundup
Issued by NWS

Home | Current Version | Previous Version | Graphics & Text | Print | Product List | Glossary On
Versions: 1 2 3 4 5 6 7 8 9 10 11 12 13 14 15 16 17 18 19 20 21 22 23 24 25 26 27 28 29 30 31 32 33 34 35 36 37 38 39 40 41 42 43 44 45 46 47 48 49 50
000
ASUS45 KPSR 202200
RWRAZ

PRELIMINARY ARIZONA REGIONAL HOURLY WEATHER ROUNDUP
NATIONAL WEATHER SERVICE PHOENIX AZ
300 PM MST WED AUG 20 2014

NOTE: FAIR INDICATES FEW OR NO CLOUDS BELOW 12,000 FEET WITH NO
SIGNIFICANT WEATHER AND/OR OBSTRUCTIONS TO VISIBILITY.

AZZ001>003-036-202300-
NORTHWEST ARIZONA

CITY           SKY/WX    TMP DP  RH WIND       PRES   REMARKS
KINGMAN        MOSUNNY   85  48  27 E13G26    30.00F
$$

AZZ004>008-015-016-018-202300-
NORTH CENTRAL ARIZONA

CITY           SKY/WX    TMP DP  RH WIND       PRES   REMARKS
GRAND CANYON   PTSUNNY   72  45  37 SW14G20   30.21F
WILLIAMS       MOSUNNY   72  48  43 W10G21    30.27F
PRESCOTT       PTSUNNY   77  50  38 W15       30.12F
FLAGSTAFF      MOSUNNY   69  45  41 SW12      30.24F
PAYSON         MOSUNNY   79  54  41 SW8G17    30.14F
PAGE           PTSUNNY   86  44  23 W3        29.99F
$$

AZZ009>014-017-202300-
NORTHEAST ARIZONA

CITY           SKY/WX    TMP DP  RH WIND       PRES   REMARKS
WINSLOW        NOT AVBL
SAINT JOHNS    MOSUNNY   79  41  25 W10       30.11F
$$

AZZ023-202300-
GREATER PHOENIX AREA

CITY           SKY/WX    TMP DP  RH WIND       PRES   REMARKS
PHOENIX        MOSUNNY   97  59  28 SW9       29.84F
GLENDALE       MOSUNNY   95  55  26 CALM      29.86F
DEER VALLEY    SUNNY     93  52  24 SW6       29.86F
SCOTTSDALE     SUNNY     93  57  29 CALM      29.88F
MESA-FALCON    MOSUNNY   95  57  28 W6        29.86F
MESA-GATEWAY   MOSUNNY   93  52  24 NW3       29.88F
CHANDLER       PTSUNNY   95  63  34 SW7       29.86F
$$

AZZ027-028-202300-
SOUTHWEST MARICOPA COUNTY AND PINAL COUNTY

CITY           SKY/WX    TMP DP  RH WIND       PRES   REMARKS
CASA GRANDE    SUNNY     95  55  26 CALM      29.88F
GILA BEND      MOCLDY    99  54  22 VRB5      29.82F
$$

AZZ503-504-507>509-202300-
SOUTHEAST ARIZONA

CITY           SKY/WX    TMP DP  RH WIND       PRES   REMARKS
TUCSON         MOSUNNY   90  52  27 SW7       29.96F
RYAN FIELD       N/A     91  54  27 NE5       29.94F
NOGALES        HVY RAIN  69  62  78 E15G29    30.08R VSB 3/4
SIERRA VISTA   PTSUNNY   73  61  64 NE6       30.13F
SAFFORD        MOSUNNY   87  56  34 W12       29.96F
$$

AZZ020-021-025-026-031-202300-
SOUTHWEST ARIZONA

CITY           SKY/WX    TMP DP  RH WIND       PRES   REMARKS
YUMA           NOT AVBL
$$

CAZ031-033-041-043-047-048-061-202300-
SOUTHERN CALIFORNIA

CITY           SKY/WX    TMP DP  RH WIND       PRES   REMARKS
DOWNTOWN L.A.  SUNNY     79  60  52 VRB5      29.90F
L.A. AIRPORT   MOSUNNY   76  59  55 W14       29.91F
SAN DIEGO      PTSUNNY   76  60  57 W8        29.92F
BURBANK        SUNNY     80  56  43 S6G16     29.90S
ONTARIO        PTSUNNY   85  52  32 SW5       29.90F THUNDER
RIVERSIDE      PTSUNNY   74  64  71 NE6       29.91F
PALM SPRINGS   PTSUNNY   96  49  20 NW13      29.82F
EL CENTRO NAS  PTSUNNY   98  43  15 E6        29.76F
IMPERIAL         N/A    100  45  15 VRB5      29.76F
BLYTHE         MOSUNNY  100  54  21 S15       29.78F
$$

NVZ020-UTZ003-202300-
SOUTHERN NEVADA-UTAH

CITY           SKY/WX    TMP DP  RH WIND       PRES   REMARKS
LAS VEGAS      NOT AVBL
SALT LAKE CITY PTSUNNY   79  49  34 S10       29.93F
$$

NMZ009-TXZ055-202300-
NEW MEXICO-WEST TEXAS

CITY           SKY/WX    TMP DP  RH WIND       PRES   REMARKS
ALBUQUERQUE    PTSUNNY   85  42  22 VRB7      30.04F
EL PASO        MOSUNNY   90  53  28 W9        29.95F
$$


........................KEY........................
SKY/WX - SKY CONDITION/WEATHER
TMP    - TEMPERATURE IN FAHRENHEIT
DP     - DEW POINT IN FAHRENHEIT
RH     - RELATIVE HUMIDITY IN PERCENT
WIND   - DIRECTION AND SPEED IN MILES PER HOUR (MPH)
VRB    - VARIABLE WIND DIRECTION
PRES   - MEAN SEA LEVEL PRESSURE IN INCHES OF MERCURY
         F - FALLING PRESSURE   R - RISING PRESSURE
         S - STEADY PRESSURE
VSB    - VISIBILITY IN MILES
HX     - HEAT INDEX IN FAHRENHEIT
WCI    - WIND CHILL INDEX IN FAHRENHEIT
TC     - TEMPERATURE IN CELSIUS WHICH IS ALSO KNOWN AS
         TEMPERATURE IN CENTIGRADE
AFB    - AIR FORCE BASE
         LUKE AFB IS LUKE AIR FORCE BASE
         DAVIS-MONTHAN IS DAVIS-MONTHAN AIR FORCE BASE
NAS    - NAVAL AIR STATION
         EL CENTRO NAS IS EL CENTRO NAVAL AIR STATION
N/A    - NOT AVAILABLE


USA.gov is the U.S. government's official web portal to all federal, state and local government web resources and services.